Powrót do katalogu

STARLINK-36657

AktywnyŁącznośćVLEO
NORAD 67835·PAYLOAD·🇺🇸 United States

Wystrzelony Feb 16, 2026 z Vandenberg Space Force Base

Loading…

Następne Przeloty (najbliższe 24 godziny)

TLE

ŚwieżeSource: CelesTrak SupGP

Epoka: Sep 15, 2026, 02:57 UTC

1 67835C 26033Q   26258.12340278 -.00005529  00000+0 -20025-3 0  2585
2 67835  43.0000 276.9597 0001122 260.5935 273.4919 15.27585412    15

Śledź STARLINK-36657 w czasie rzeczywistym z AllMySat

Download on the App Store